This demonstration page uses our WeatherBlox Daily Observations layout. Learn more.

Left ArrowRight Arrow

Hourly Observations for July 24, 2018

Temp ( °F °C ) Dew Point ( °F °C ) Humidity (%) Winds ( mph kmh ) Pressure ( in mb ) Visibility ( mi km ) Precip ( " mm )
12:51 am 00:51 Clear 84 28.9 57 13.9 40 40 SE 3 6 29.82 1010 10 16.0934 N/A
1:51 am 01:51 Clear 85 29.4 56 13.3 37 37 N 5 7 29.81 1010 10 16.0934 N/A
2:51 am 02:51 Clear 80 26.7 64 17.8 58 58 WSW 5 7 29.82 1010 10 16.0934 N/A
3:51 am 03:51 Clear 78 25.6 64 17.8 62 62 ENE 6 9 29.85 1011 10 16.0934 N/A
4:51 am 04:51 Clear 83 28.3 53 11.7 36 36 ESE 8 13 29.85 1011 10 16.0934 N/A
5:51 am 05:51 Sunny 85 29.4 51 10.6 31 31 E 10 17 29.88 1012 10 16.0934 N/A
6:51 am 06:51 Sunny 85 29.4 53 11.7 33 33 SSE 15 24 29.91 1013 10 16.0934 N/A
7:51 am 07:51 Partly Cloudy 85 29.4 54 12.2 35 35 E 6 9 29.94 1014 10 16.0934 N/A
8:51 am 08:51 Sunny 90 32.2 52 11.1 27 27 SE 9 15 29.95 1014 10 16.0934 N/A
9:51 am 09:51 Sunny 97 36.1 49 9.4 20 20 ESE 13 20 29.93 1014 10 16.0934 N/A
10:51 am 10:51 Sunny 99 37.2 50 10 19 19 SE 9 15 29.93 1013 10 16.0934 N/A
11:51 am 11:51 Sunny 101 38.3 50 10 18 18 SSE 9 15 29.9 1013 10 16.0934 N/A
12:51 pm 12:51 Sunny 102 38.9 47 8.3 15 15 VRB 6 9 29.88 1012 10 16.0934 N/A
1:51 pm 13:51 Sunny 103 39.4 46 7.8 15 15 SW 6 9 29.84 1011 10 16.0934 N/A
2:51 pm 14:51 Sunny 105 40.6 46 7.8 14 14 S 8 13 29.82 1010 10 16.0934 N/A
3:51 pm 15:51 Sunny 106 41.1 38 3.3 10 10 WSW 6 9 29.79 1009 10 16.0934 N/A
4:51 pm 16:51 Sunny 107 41.7 40 4.4 10 10 NW 6 9 29.77 1008 10 16.0934 N/A
5:51 pm 17:51 Sunny 105 40.6 41 5 11 11 N N/A 29.77 1008 10 16.0934 N/A
6:51 pm 18:51 Sunny 104 40 44 6.7 13 13 W 3 6 29.78 1009 10 16.0934 N/A
7:51 pm 19:51 Clear 99 37.2 47 8.3 17 17 ENE 18 30 29.81 1009 10 16.0934 N/A
8:51 pm 20:51 Clear 95 35 49 9.4 21 21 E 15 24 29.83 1010 10 16.0934 N/A
9:51 pm 21:51 Clear 92 33.3 51 10.6 25 25 SSW 9 15 29.88 1012 10 16.0934 N/A
10:51 pm 22:51 Clear 93 33.9 48 8.9 21 21 E 9 15 29.87 1011 10 16.0934 N/A
11:51 pm 23:51 Clear 91 32.8 48 8.9 23 23 ESE 9 15 29.89 1012 10 16.0934 N/A

Powered by AerisWeather